Year,Month,Day,Hour,Minute,Value (Times are PST for temperature in C)
2021,04,23,00,00,11.00
2021,04,23,00,01,11.00
2021,04,23,00,02,11.00
2021,04,23,00,03,10.90
2021,04,23,00,04,10.90
2021,04,23,00,05,10.90
2021,04,23,00,06,10.80
2021,04,23,00,07,10.80
2021,04,23,00,08,10.80
2021,04,23,00,09,10.80
2021,04,23,00,10,10.70
2021,04,23,00,11,10.70
2021,04,23,00,12,10.70
2021,04,23,00,13,10.70
2021,04,23,00,14,10.60
2021,04,23,00,15,10.60
2021,04,23,00,16,10.60
2021,04,23,00,17,10.50
2021,04,23,00,18,10.50
2021,04,23,00,19,10.40
2021,04,23,00,20,10.40
2021,04,23,00,21,10.40
2021,04,23,00,22,10.30
2021,04,23,00,23,10.30
2021,04,23,00,24,10.30
2021,04,23,00,25,10.30
2021,04,23,00,26,10.20
2021,04,23,00,27,10.20
2021,04,23,00,28,10.20
2021,04,23,00,29,10.20
2021,04,23,00,30,10.30
2021,04,23,00,31,10.30
2021,04,23,00,32,10.30
2021,04,23,00,33,10.30
2021,04,23,00,34,10.30
2021,04,23,00,35,10.30
2021,04,23,00,36,10.30
2021,04,23,00,37,10.30
2021,04,23,00,38,10.30
2021,04,23,00,39,10.30
2021,04,23,00,40,10.20
2021,04,23,00,41,10.20
2021,04,23,00,42,10.30
2021,04,23,00,43,10.30
2021,04,23,00,44,10.30
2021,04,23,00,45,10.40
2021,04,23,00,46,10.40
2021,04,23,00,47,10.40
2021,04,23,00,48,10.40
2021,04,23,00,49,10.50
2021,04,23,00,50,10.50
2021,04,23,00,51,10.50
2021,04,23,00,52,10.50
2021,04,23,00,53,10.50
2021,04,23,00,54,10.40
2021,04,23,00,55,10.40
2021,04,23,00,56,10.40
2021,04,23,00,57,10.30
2021,04,23,00,58,10.30
2021,04,23,00,59,10.30
2021,04,23,01,00,10.30
2021,04,23,01,01,10.20
2021,04,23,01,02,10.20
2021,04,23,01,03,10.20
2021,04,23,01,04,10.20
2021,04,23,01,05,10.20
2021,04,23,01,06,10.10
2021,04,23,01,07,10.10
2021,04,23,01,08,10.10
2021,04,23,01,09,10.10
2021,04,23,01,10,10.20
2021,04,23,01,11,10.20
2021,04,23,01,12,10.20
2021,04,23,01,13,10.30
2021,04,23,01,14,10.40
2021,04,23,01,15,10.50
2021,04,23,01,16,10.60
2021,04,23,01,17,10.70
2021,04,23,01,18,10.80
2021,04,23,01,19,10.90
2021,04,23,01,20,11.00
2021,04,23,01,21,11.00
2021,04,23,01,22,11.10
2021,04,23,01,23,11.10
2021,04,23,01,24,11.10
2021,04,23,01,25,11.20
2021,04,23,01,26,11.10
2021,04,23,01,27,11.10
2021,04,23,01,28,11.10
2021,04,23,01,29,11.10
2021,04,23,01,30,11.10
2021,04,23,01,31,11.10
2021,04,23,01,32,11.10
2021,04,23,01,33,11.00
2021,04,23,01,34,11.00
2021,04,23,01,35,10.90
2021,04,23,01,36,10.90
2021,04,23,01,37,10.80
2021,04,23,01,38,10.80
2021,04,23,01,39,10.70
2021,04,23,01,40,10.60
2021,04,23,01,41,10.50
2021,04,23,01,42,10.50
2021,04,23,01,43,10.40
2021,04,23,01,44,10.40
2021,04,23,01,45,10.30
2021,04,23,01,46,10.30
2021,04,23,01,47,10.30
2021,04,23,01,48,10.20
2021,04,23,01,49,10.20
2021,04,23,01,50,10.20
2021,04,23,01,51,10.10
2021,04,23,01,52,10.10
2021,04,23,01,53,10.10
2021,04,23,01,54,10.10
2021,04,23,01,55,10.00
2021,04,23,01,56,10.00
2021,04,23,01,57,10.00
2021,04,23,01,58,10.00
2021,04,23,01,59,10.00
2021,04,23,02,00,9.90
2021,04,23,02,01,9.90
2021,04,23,02,02,9.90
2021,04,23,02,03,9.80
2021,04,23,02,04,9.80
2021,04,23,02,05,9.80
2021,04,23,02,06,9.80
2021,04,23,02,07,9.70
2021,04,23,02,08,9.70
2021,04,23,02,09,9.70
2021,04,23,02,10,9.70
2021,04,23,02,11,9.70
2021,04,23,02,12,9.70
2021,04,23,02,13,9.70
2021,04,23,02,14,9.70
2021,04,23,02,15,9.80
2021,04,23,02,16,9.70
2021,04,23,02,17,9.70
2021,04,23,02,18,9.70
2021,04,23,02,19,9.70
2021,04,23,02,20,9.70
2021,04,23,02,21,9.70
2021,04,23,02,22,9.60
2021,04,23,02,23,9.60
2021,04,23,02,24,9.60
2021,04,23,02,25,9.60
2021,04,23,02,26,9.60
2021,04,23,02,27,9.60
2021,04,23,02,28,9.60
2021,04,23,02,29,9.60
2021,04,23,02,30,9.50
2021,04,23,02,31,9.50
2021,04,23,02,32,9.50
2021,04,23,02,33,9.40
2021,04,23,02,34,9.40
2021,04,23,02,35,9.40
2021,04,23,02,36,9.40
2021,04,23,02,37,9.40
2021,04,23,02,38,9.40
2021,04,23,02,39,9.50
2021,04,23,02,40,9.50
2021,04,23,02,41,9.50
2021,04,23,02,42,9.50
2021,04,23,02,43,9.50
2021,04,23,02,44,9.50
2021,04,23,02,45,9.50
2021,04,23,02,46,9.40
2021,04,23,02,47,9.40
2021,04,23,02,48,9.40
2021,04,23,02,49,9.40
2021,04,23,02,50,9.30
2021,04,23,02,51,9.30
2021,04,23,02,52,9.30
2021,04,23,02,53,9.20
2021,04,23,02,54,9.20
2021,04,23,02,55,9.20
2021,04,23,02,56,9.10
2021,04,23,02,57,9.10
2021,04,23,02,58,9.10
2021,04,23,02,59,9.00
2021,04,23,03,00,9.00
2021,04,23,03,01,9.00
2021,04,23,03,02,8.90
2021,04,23,03,03,8.90
2021,04,23,03,04,8.90
2021,04,23,03,05,8.90
2021,04,23,03,06,8.90
2021,04,23,03,07,8.80
2021,04,23,03,08,8.80
2021,04,23,03,09,8.80
2021,04,23,03,10,8.80
2021,04,23,03,11,8.80
2021,04,23,03,12,8.80
2021,04,23,03,13,8.80
2021,04,23,03,14,8.80
2021,04,23,03,15,8.70
2021,04,23,03,16,8.70
2021,04,23,03,17,8.70
2021,04,23,03,18,8.70
2021,04,23,03,19,8.70
2021,04,23,03,20,8.70
2021,04,23,03,21,8.70
2021,04,23,03,22,8.70
2021,04,23,03,23,8.70
2021,04,23,03,24,8.70
2021,04,23,03,25,8.70
2021,04,23,03,26,8.60
2021,04,23,03,27,8.60
2021,04,23,03,28,8.60
2021,04,23,03,29,8.60
2021,04,23,03,30,8.60
2021,04,23,03,31,8.60
2021,04,23,03,32,8.60
2021,04,23,03,33,8.60
2021,04,23,03,34,8.60
2021,04,23,03,35,8.50
2021,04,23,03,36,8.50
2021,04,23,03,37,8.50
2021,04,23,03,38,8.50
2021,04,23,03,39,8.50
2021,04,23,03,40,8.50
2021,04,23,03,41,8.50
2021,04,23,03,42,8.50
2021,04,23,03,43,8.50
2021,04,23,03,44,8.50
2021,04,23,03,45,8.50
2021,04,23,03,46,8.50
2021,04,23,03,47,8.50
2021,04,23,03,48,8.50
2021,04,23,03,49,8.50
2021,04,23,03,50,8.50
2021,04,23,03,51,8.40
2021,04,23,03,52,8.40
2021,04,23,03,53,8.40
2021,04,23,03,54,8.40
2021,04,23,03,55,8.40
2021,04,23,03,56,8.40
2021,04,23,03,57,8.30
2021,04,23,03,58,8.30
2021,04,23,03,59,8.30
2021,04,23,04,00,8.30
2021,04,23,04,01,8.30
2021,04,23,04,02,8.30
2021,04,23,04,03,8.30
2021,04,23,04,04,8.30
2021,04,23,04,05,8.30
2021,04,23,04,06,8.30
2021,04,23,04,07,8.30
2021,04,23,04,08,8.20
2021,04,23,04,09,8.20
2021,04,23,04,10,8.20
2021,04,23,04,11,8.20
2021,04,23,04,12,8.20
2021,04,23,04,13,8.20
2021,04,23,04,14,8.20
2021,04,23,04,15,8.20
2021,04,23,04,16,8.20
2021,04,23,04,17,8.10
2021,04,23,04,18,8.10
2021,04,23,04,19,8.20
2021,04,23,04,20,8.10
2021,04,23,04,21,8.10
2021,04,23,04,22,8.10
2021,04,23,04,23,8.10
2021,04,23,04,24,8.10
2021,04,23,04,25,8.10
2021,04,23,04,26,8.10
2021,04,23,04,27,8.10
2021,04,23,04,28,8.10
2021,04,23,04,29,8.10
2021,04,23,04,30,8.10
2021,04,23,04,31,8.10
2021,04,23,04,32,8.10
2021,04,23,04,33,8.00
2021,04,23,04,34,8.00
2021,04,23,04,35,8.10
2021,04,23,04,36,8.00
2021,04,23,04,37,8.10
2021,04,23,04,38,8.10
2021,04,23,04,39,8.10
2021,04,23,04,40,8.10
2021,04,23,04,41,8.10
2021,04,23,04,42,8.10
2021,04,23,04,43,8.10
2021,04,23,04,44,8.10
2021,04,23,04,45,8.10
2021,04,23,04,46,8.00
2021,04,23,04,47,8.00
2021,04,23,04,48,8.00
2021,04,23,04,49,8.00
2021,04,23,04,50,8.00
2021,04,23,04,51,8.00
2021,04,23,04,52,8.00
2021,04,23,04,53,7.90
2021,04,23,04,54,8.00
2021,04,23,04,55,8.00
2021,04,23,04,56,8.00
2021,04,23,04,57,8.00
2021,04,23,04,58,8.00
2021,04,23,04,59,8.00
2021,04,23,05,00,8.00
2021,04,23,05,01,8.00
2021,04,23,05,02,8.00
2021,04,23,05,03,8.00
2021,04,23,05,04,7.90
2021,04,23,05,05,7.90
2021,04,23,05,06,8.00
2021,04,23,05,07,7.90
2021,04,23,05,08,7.90
2021,04,23,05,09,7.90
2021,04,23,05,10,7.90
2021,04,23,05,11,7.90
2021,04,23,05,12,7.90
2021,04,23,05,13,7.80
2021,04,23,05,14,7.80
2021,04,23,05,15,7.80
2021,04,23,05,16,7.80
2021,04,23,05,17,7.80
2021,04,23,05,18,7.80
2021,04,23,05,19,7.80
2021,04,23,05,20,7.80
2021,04,23,05,21,7.80
2021,04,23,05,22,7.70
2021,04,23,05,23,7.70
2021,04,23,05,24,7.70
2021,04,23,05,25,7.70
2021,04,23,05,26,7.70
2021,04,23,05,27,7.70
2021,04,23,05,28,7.70
2021,04,23,05,29,7.60
2021,04,23,05,30,7.60
2021,04,23,05,31,7.60
2021,04,23,05,32,7.60
2021,04,23,05,33,7.60
2021,04,23,05,34,7.50
2021,04,23,05,35,7.50
2021,04,23,05,36,7.50
2021,04,23,05,37,7.50
2021,04,23,05,38,7.40
2021,04,23,05,39,7.40
2021,04,23,05,40,7.40
2021,04,23,05,41,7.30
2021,04,23,05,42,7.30
2021,04,23,05,43,7.30
2021,04,23,05,44,7.30
2021,04,23,05,45,7.30
2021,04,23,05,46,7.30
2021,04,23,05,47,7.20
2021,04,23,05,48,7.20
2021,04,23,05,49,7.20
2021,04,23,05,50,7.20
2021,04,23,05,51,7.20
2021,04,23,05,52,7.20
2021,04,23,05,53,7.10
2021,04,23,05,54,7.10
2021,04,23,05,55,7.10
2021,04,23,05,56,7.10
2021,04,23,05,57,7.10
2021,04,23,05,58,7.10
2021,04,23,05,59,7.10
2021,04,23,06,00,7.10
2021,04,23,06,01,7.10
2021,04,23,06,02,7.10
2021,04,23,06,03,7.10
2021,04,23,06,04,7.10
2021,04,23,06,05,7.10
2021,04,23,06,06,7.10
2021,04,23,06,07,7.10
2021,04,23,06,08,7.10
2021,04,23,06,09,7.10
2021,04,23,06,10,7.10
2021,04,23,06,11,7.10
2021,04,23,06,12,7.00
2021,04,23,06,13,7.10
2021,04,23,06,14,7.00
2021,04,23,06,15,7.00
2021,04,23,06,16,7.00
2021,04,23,06,17,7.00
2021,04,23,06,18,7.00
2021,04,23,06,19,7.00
2021,04,23,06,20,6.90
2021,04,23,06,21,6.90
2021,04,23,06,22,6.90
2021,04,23,06,23,6.90
2021,04,23,06,24,6.90
2021,04,23,06,25,6.90
2021,04,23,06,26,6.90
2021,04,23,06,27,6.80
2021,04,23,06,28,6.80
2021,04,23,06,29,6.80
2021,04,23,06,30,6.80
2021,04,23,06,31,6.80
2021,04,23,06,32,6.80
2021,04,23,06,33,6.80
2021,04,23,06,34,6.90
2021,04,23,06,35,6.90
2021,04,23,06,36,6.90
2021,04,23,06,37,6.90
2021,04,23,06,38,6.80
2021,04,23,06,39,6.80
2021,04,23,06,40,6.90
2021,04,23,06,41,6.80
2021,04,23,06,42,6.80
2021,04,23,06,43,6.80
2021,04,23,06,44,6.80
2021,04,23,06,45,6.80
2021,04,23,06,46,6.80
2021,04,23,06,47,6.90
2021,04,23,06,48,6.90
2021,04,23,06,49,6.90
2021,04,23,06,50,6.90
2021,04,23,06,51,6.80
2021,04,23,06,52,6.90
2021,04,23,06,53,6.80
2021,04,23,06,54,6.90
2021,04,23,06,55,6.80
2021,04,23,06,56,6.90
2021,04,23,06,57,6.90
2021,04,23,06,58,6.90
2021,04,23,06,59,6.90
2021,04,23,07,00,6.90
2021,04,23,07,01,6.90
2021,04,23,07,02,6.90
2021,04,23,07,03,6.90
2021,04,23,07,04,6.90
2021,04,23,07,05,6.90
2021,04,23,07,06,6.90
2021,04,23,07,07,6.90
2021,04,23,07,08,6.90
2021,04,23,07,09,7.00
2021,04,23,07,10,7.00
2021,04,23,07,11,7.00
2021,04,23,07,12,7.10
2021,04,23,07,13,7.10
2021,04,23,07,14,7.10
2021,04,23,07,15,7.10
2021,04,23,07,16,7.20
2021,04,23,07,17,7.20
2021,04,23,07,18,7.20
2021,04,23,07,19,7.20
2021,04,23,07,20,7.20
2021,04,23,07,21,7.30
2021,04,23,07,22,7.30
2021,04,23,07,23,7.30
2021,04,23,07,24,7.40
2021,04,23,07,25,7.40
2021,04,23,07,26,7.40
2021,04,23,07,27,7.50
2021,04,23,07,28,7.50
2021,04,23,07,29,7.50
2021,04,23,07,30,7.60
2021,04,23,07,31,7.60
2021,04,23,07,32,7.70
2021,04,23,07,33,7.70
2021,04,23,07,34,7.80
2021,04,23,07,35,7.80
2021,04,23,07,36,7.80
2021,04,23,07,37,7.90
2021,04,23,07,38,7.90
2021,04,23,07,39,8.00
2021,04,23,07,40,8.10
2021,04,23,07,41,8.10
2021,04,23,07,42,8.10
2021,04,23,07,43,8.20
2021,04,23,07,44,8.20
2021,04,23,07,45,8.30
2021,04,23,07,46,8.30
2021,04,23,07,47,8.40
2021,04,23,07,48,8.40
2021,04,23,07,49,8.50
2021,04,23,07,50,8.50
2021,04,23,07,51,8.60
2021,04,23,07,52,8.70
2021,04,23,07,53,8.70
2021,04,23,07,54,8.80
2021,04,23,07,55,8.80
2021,04,23,07,56,8.90
2021,04,23,07,57,9.00
2021,04,23,07,58,9.10
2021,04,23,07,59,9.10
2021,04,23,08,00,9.20
2021,04,23,08,01,9.30
2021,04,23,08,02,9.30
2021,04,23,08,03,9.40
2021,04,23,08,04,9.40
2021,04,23,08,05,9.50
2021,04,23,08,06,9.50
2021,04,23,08,07,9.60
2021,04,23,08,08,9.60
2021,04,23,08,09,9.70
2021,04,23,08,10,9.70
2021,04,23,08,11,9.80
2021,04,23,08,12,9.80
2021,04,23,08,13,9.90
2021,04,23,08,14,10.00
2021,04,23,08,15,10.10
2021,04,23,08,16,10.10
2021,04,23,08,17,10.20
2021,04,23,08,18,10.20
2021,04,23,08,19,10.20
2021,04,23,08,20,10.20
2021,04,23,08,21,10.20
2021,04,23,08,22,10.20
2021,04,23,08,23,10.20
2021,04,23,08,24,10.30
2021,04,23,08,25,10.30
2021,04,23,08,26,10.30
2021,04,23,08,27,10.30
2021,04,23,08,28,10.30
2021,04,23,08,29,10.20
2021,04,23,08,30,10.20
2021,04,23,08,31,10.20
2021,04,23,08,32,10.20
2021,04,23,08,33,10.20
2021,04,23,08,34,10.20
2021,04,23,08,35,10.10
2021,04,23,08,36,10.10
2021,04,23,08,37,10.10
2021,04,23,08,38,10.00
2021,04,23,08,39,10.00
2021,04,23,08,40,9.90
2021,04,23,08,41,9.90
2021,04,23,08,42,9.90
2021,04,23,08,43,9.80
2021,04,23,08,44,9.80
2021,04,23,08,45,9.80
2021,04,23,08,46,9.80
2021,04,23,08,47,9.80
2021,04,23,08,48,9.80
2021,04,23,08,49,9.80
2021,04,23,08,50,9.80
2021,04,23,08,51,9.80
2021,04,23,08,52,9.80
2021,04,23,08,53,9.80
2021,04,23,08,54,9.80
2021,04,23,08,55,9.80
2021,04,23,08,56,9.90
2021,04,23,08,57,9.90
2021,04,23,08,58,9.90
2021,04,23,08,59,9.90
2021,04,23,09,00,10.00
2021,04,23,09,01,10.00
2021,04,23,09,02,10.00
2021,04,23,09,03,10.00
2021,04,23,09,04,10.00
2021,04,23,09,05,10.00
2021,04,23,09,06,10.10
2021,04,23,09,07,10.00
2021,04,23,09,08,10.10
2021,04,23,09,09,10.10
2021,04,23,09,10,10.10
2021,04,23,09,11,10.10
2021,04,23,09,12,10.10
2021,04,23,09,13,10.10
2021,04,23,09,14,10.20
2021,04,23,09,15,10.20
2021,04,23,09,16,10.30
2021,04,23,09,17,10.30
2021,04,23,09,18,10.30
2021,04,23,09,19,10.30
2021,04,23,09,20,10.30
2021,04,23,09,21,10.40
2021,04,23,09,22,10.40
2021,04,23,09,23,10.40
2021,04,23,09,24,10.40
2021,04,23,09,25,10.40
2021,04,23,09,26,10.40
2021,04,23,09,27,10.40
2021,04,23,09,28,10.30
2021,04,23,09,29,10.40
2021,04,23,09,30,10.40
2021,04,23,09,31,10.40
2021,04,23,09,32,10.50
2021,04,23,09,33,10.50
2021,04,23,09,34,10.50
2021,04,23,09,35,10.60
2021,04,23,09,36,10.60
2021,04,23,09,37,10.70
2021,04,23,09,38,10.70
2021,04,23,09,39,10.70
2021,04,23,09,40,10.80
2021,04,23,09,41,10.90
2021,04,23,09,42,10.90
2021,04,23,09,43,10.90
2021,04,23,09,44,11.00
2021,04,23,09,45,11.10
2021,04,23,09,46,11.10
2021,04,23,09,47,11.10
2021,04,23,09,48,11.10
2021,04,23,09,49,11.10
2021,04,23,09,50,11.20
2021,04,23,09,51,11.20
2021,04,23,09,52,11.30
2021,04,23,09,53,11.30
2021,04,23,09,54,11.30
2021,04,23,09,55,11.40
2021,04,23,09,56,11.40
2021,04,23,09,57,11.40
2021,04,23,09,58,11.50
2021,04,23,09,59,11.60
2021,04,23,10,00,11.70
2021,04,23,10,01,11.80
2021,04,23,10,02,11.90
2021,04,23,10,03,12.00
2021,04,23,10,04,12.10
2021,04,23,10,05,12.20
2021,04,23,10,06,12.20
2021,04,23,10,07,12.30
2021,04,23,10,08,12.30
2021,04,23,10,09,12.30
2021,04,23,10,10,12.30
2021,04,23,10,11,12.30
2021,04,23,10,12,12.30
2021,04,23,10,13,12.30
2021,04,23,10,14,12.30
2021,04,23,10,15,12.30
2021,04,23,10,16,12.30
2021,04,23,10,17,12.40
2021,04,23,10,18,12.50
2021,04,23,10,19,12.60
2021,04,23,10,20,12.60
2021,04,23,10,21,12.60
2021,04,23,10,22,12.70
2021,04,23,10,23,12.80
2021,04,23,10,24,12.90
2021,04,23,10,25,12.90
2021,04,23,10,26,12.90
2021,04,23,10,27,12.90
2021,04,23,10,28,12.90
2021,04,23,10,29,12.90
2021,04,23,10,30,12.90
2021,04,23,10,31,12.90
2021,04,23,10,32,12.90
2021,04,23,10,33,12.80
2021,04,23,10,34,12.80
2021,04,23,10,35,12.90
2021,04,23,10,36,12.90
2021,04,23,10,37,13.00
2021,04,23,10,38,13.00
2021,04,23,10,39,13.00
2021,04,23,10,40,13.00
2021,04,23,10,41,13.00
2021,04,23,10,42,13.00
2021,04,23,10,43,13.00
2021,04,23,10,44,13.00
2021,04,23,10,45,13.10
2021,04,23,10,46,13.10
2021,04,23,10,47,13.00
2021,04,23,10,48,12.90
2021,04,23,10,49,12.90
2021,04,23,10,50,12.90
2021,04,23,10,51,12.80
2021,04,23,10,52,12.80
2021,04,23,10,53,12.80
2021,04,23,10,54,12.80
2021,04,23,10,55,12.70
2021,04,23,10,56,12.60
2021,04,23,10,57,12.60
2021,04,23,10,58,12.50
2021,04,23,10,59,12.50
2021,04,23,11,00,12.50
2021,04,23,11,01,12.50
2021,04,23,11,02,12.60
2021,04,23,11,03,12.60
2021,04,23,11,04,12.60
2021,04,23,11,05,12.50
2021,04,23,11,06,12.40
2021,04,23,11,07,12.40
2021,04,23,11,08,12.50
2021,04,23,11,09,12.50
2021,04,23,11,10,12.60
2021,04,23,11,11,12.60
2021,04,23,11,12,12.50
2021,04,23,11,13,12.60
2021,04,23,11,14,12.60
2021,04,23,11,15,12.70
2021,04,23,11,16,12.70
2021,04,23,11,17,12.80
2021,04,23,11,18,12.80
2021,04,23,11,19,12.80
2021,04,23,11,20,12.90
2021,04,23,11,21,12.90
2021,04,23,11,22,13.00
2021,04,23,11,23,13.00
2021,04,23,11,24,12.90
2021,04,23,11,25,12.90
2021,04,23,11,26,13.00
2021,04,23,11,27,13.00
2021,04,23,11,28,13.10
2021,04,23,11,29,13.20
2021,04,23,11,30,13.20
2021,04,23,11,31,13.20
2021,04,23,11,32,13.20
2021,04,23,11,33,13.20
2021,04,23,11,34,13.30
2021,04,23,11,35,13.30
2021,04,23,11,36,13.30
2021,04,23,11,37,13.40
2021,04,23,11,38,13.30
2021,04,23,11,39,13.20
2021,04,23,11,40,13.10
2021,04,23,11,41,13.00
2021,04,23,11,42,12.90
2021,04,23,11,43,12.90
2021,04,23,11,44,12.80
2021,04,23,11,45,12.80
2021,04,23,11,46,12.80
2021,04,23,11,47,12.90
2021,04,23,11,48,13.00
2021,04,23,11,49,13.00
2021,04,23,11,50,13.10
2021,04,23,11,51,13.10
2021,04,23,11,52,13.10
2021,04,23,11,53,13.00
2021,04,23,11,54,12.90
2021,04,23,11,55,12.90
2021,04,23,11,56,12.80
2021,04,23,11,57,12.80
2021,04,23,11,58,12.80
2021,04,23,11,59,12.90
2021,04,23,12,00,12.90
2021,04,23,12,01,12.90
2021,04,23,12,02,12.80
2021,04,23,12,03,12.80
2021,04,23,12,04,12.70
2021,04,23,12,05,12.70
2021,04,23,12,06,12.70
2021,04,23,12,07,12.80
2021,04,23,12,08,12.80
2021,04,23,12,09,12.80
2021,04,23,12,10,12.70
2021,04,23,12,11,12.70
2021,04,23,12,12,12.60
2021,04,23,12,13,12.60
2021,04,23,12,14,12.60
2021,04,23,12,15,12.60
2021,04,23,12,16,12.60
2021,04,23,12,17,12.70
2021,04,23,12,18,12.80
2021,04,23,12,19,12.80
2021,04,23,12,20,12.80
2021,04,23,12,21,12.80
2021,04,23,12,22,12.70
2021,04,23,12,23,12.70
2021,04,23,12,24,12.60
2021,04,23,12,25,12.60
2021,04,23,12,26,12.50
2021,04,23,12,27,12.50
2021,04,23,12,28,12.50
2021,04,23,12,29,12.60
2021,04,23,12,30,12.60
2021,04,23,12,31,12.60
2021,04,23,12,32,12.60
2021,04,23,12,33,12.60
2021,04,23,12,34,12.60
2021,04,23,12,35,12.50
2021,04,23,12,36,12.50
2021,04,23,12,37,12.50
2021,04,23,12,38,12.40
2021,04,23,12,39,12.50
2021,04,23,12,40,12.50
2021,04,23,12,41,12.50
2021,04,23,12,42,12.50
2021,04,23,12,43,12.50
2021,04,23,12,44,12.40
2021,04,23,12,45,12.40
2021,04,23,12,46,12.40
2021,04,23,12,47,12.40
2021,04,23,12,48,12.50
2021,04,23,12,49,12.50
2021,04,23,12,50,12.50
2021,04,23,12,51,12.50
2021,04,23,12,52,12.40
2021,04,23,12,53,12.40
2021,04,23,12,54,12.40
2021,04,23,12,55,12.40
2021,04,23,12,56,12.40
2021,04,23,12,57,12.30
2021,04,23,12,58,12.40
2021,04,23,12,59,12.40
2021,04,23,13,00,12.40
2021,04,23,13,01,12.40
2021,04,23,13,02,12.40
2021,04,23,13,03,12.40
2021,04,23,13,04,12.40
2021,04,23,13,05,12.30
2021,04,23,13,06,12.30
2021,04,23,13,07,12.30
2021,04,23,13,08,12.30
2021,04,23,13,09,12.30
2021,04,23,13,10,12.40
2021,04,23,13,11,12.40
2021,04,23,13,12,12.50
2021,04,23,13,13,12.50
2021,04,23,13,14,12.50
2021,04,23,13,15,12.50
2021,04,23,13,16,12.50
2021,04,23,13,17,12.50
2021,04,23,13,18,12.50
2021,04,23,13,19,12.50
2021,04,23,13,20,12.50
2021,04,23,13,21,12.50
2021,04,23,13,22,12.50
2021,04,23,13,23,12.40
2021,04,23,13,24,12.40
2021,04,23,13,25,12.40
2021,04,23,13,26,12.40
2021,04,23,13,27,12.40
2021,04,23,13,28,12.40
2021,04,23,13,29,12.50
2021,04,23,13,30,12.50
2021,04,23,13,31,12.50
2021,04,23,13,32,12.50
2021,04,23,13,33,12.60
2021,04,23,13,34,12.60
2021,04,23,13,35,12.60
2021,04,23,13,36,12.70
2021,04,23,13,37,12.70
2021,04,23,13,38,12.70
2021,04,23,13,39,12.70
2021,04,23,13,40,12.70
2021,04,23,13,41,12.70
2021,04,23,13,42,12.70
2021,04,23,13,43,12.70
2021,04,23,13,44,12.70
2021,04,23,13,45,12.70
2021,04,23,13,46,12.70
2021,04,23,13,47,12.70
2021,04,23,13,48,12.70
2021,04,23,13,49,12.70
2021,04,23,13,50,12.70
2021,04,23,13,51,12.80
2021,04,23,13,52,12.80
2021,04,23,13,53,12.80
2021,04,23,13,54,12.90
2021,04,23,13,55,12.90
2021,04,23,13,56,12.90
2021,04,23,13,57,12.90
2021,04,23,13,58,12.90
2021,04,23,13,59,12.80
2021,04,23,14,00,12.70
2021,04,23,14,01,12.70
2021,04,23,14,02,12.70
2021,04,23,14,03,12.70
2021,04,23,14,04,12.70
2021,04,23,14,05,12.70
2021,04,23,14,06,12.70
2021,04,23,14,07,12.70
2021,04,23,14,08,12.60
2021,04,23,14,09,12.60
2021,04,23,14,10,12.60
2021,04,23,14,11,12.60
2021,04,23,14,12,12.70
2021,04,23,14,13,12.70
2021,04,23,14,14,12.70
2021,04,23,14,15,12.70
2021,04,23,14,16,12.70
2021,04,23,14,17,12.80
2021,04,23,14,18,12.80
2021,04,23,14,19,12.80
2021,04,23,14,20,12.90
2021,04,23,14,21,12.90
2021,04,23,14,22,13.00
2021,04,23,14,23,13.00
2021,04,23,14,24,13.10
2021,04,23,14,25,13.10
2021,04,23,14,26,13.20
2021,04,23,14,27,13.20
2021,04,23,14,28,13.30
2021,04,23,14,29,13.30
2021,04,23,14,30,13.40
2021,04,23,14,31,13.40
2021,04,23,14,32,13.40
2021,04,23,14,33,13.40
2021,04,23,14,34,13.50
2021,04,23,14,35,13.50
2021,04,23,14,36,13.50
2021,04,23,14,37,13.50
2021,04,23,14,38,13.50
2021,04,23,14,39,13.60
2021,04,23,14,40,13.60
2021,04,23,14,41,13.60
2021,04,23,14,42,13.70
2021,04,23,14,43,13.70
2021,04,23,14,44,13.70
2021,04,23,14,45,13.70
2021,04,23,14,46,13.70
2021,04,23,14,47,13.70
2021,04,23,14,48,13.70
2021,04,23,14,49,13.70
2021,04,23,14,50,13.70
2021,04,23,14,51,13.70
2021,04,23,14,52,13.70
2021,04,23,14,53,13.70
2021,04,23,14,54,13.70
2021,04,23,14,55,13.60
2021,04,23,14,56,13.60
2021,04,23,14,57,13.70
2021,04,23,14,58,13.70
2021,04,23,14,59,13.70
2021,04,23,15,00,13.70
2021,04,23,15,01,13.70
2021,04,23,15,02,13.70
2021,04,23,15,03,13.60
2021,04,23,15,04,13.60
2021,04,23,15,05,13.60
2021,04,23,15,06,13.50
2021,04,23,15,07,13.50
2021,04,23,15,08,13.40
2021,04,23,15,09,13.40
2021,04,23,15,10,13.40
2021,04,23,15,11,13.40
2021,04,23,15,12,13.40
2021,04,23,15,13,13.40
2021,04,23,15,14,13.50
2021,04,23,15,15,13.50
2021,04,23,15,16,13.50
2021,04,23,15,17,13.50
2021,04,23,15,18,13.50
2021,04,23,15,19,13.50
2021,04,23,15,20,13.60
2021,04,23,15,21,13.60
2021,04,23,15,22,13.70
2021,04,23,15,23,13.70
2021,04,23,15,24,13.70
2021,04,23,15,25,13.70
2021,04,23,15,26,13.70
2021,04,23,15,27,13.60
2021,04,23,15,28,13.50
2021,04,23,15,29,13.40
2021,04,23,15,30,13.40
2021,04,23,15,31,13.40
2021,04,23,15,32,13.40
2021,04,23,15,33,13.40
2021,04,23,15,34,13.40
2021,04,23,15,35,13.30
2021,04,23,15,36,13.30
2021,04,23,15,37,13.30
2021,04,23,15,38,13.40
2021,04,23,15,39,13.40
2021,04,23,15,40,13.40
2021,04,23,15,41,13.40
2021,04,23,15,42,13.50
2021,04,23,15,43,13.50
2021,04,23,15,44,13.60
2021,04,23,15,45,13.60
2021,04,23,15,46,13.60
2021,04,23,15,47,13.70
2021,04,23,15,48,13.70
2021,04,23,15,49,13.70
2021,04,23,15,50,13.70
2021,04,23,15,51,13.70
2021,04,23,15,52,13.70
2021,04,23,15,53,13.70
2021,04,23,15,54,13.70
2021,04,23,15,55,13.70
2021,04,23,15,56,13.70
2021,04,23,15,57,13.70
2021,04,23,15,58,13.70
2021,04,23,15,59,13.70
2021,04,23,16,00,13.70
2021,04,23,16,01,13.60
2021,04,23,16,02,13.60
2021,04,23,16,03,13.60
2021,04,23,16,04,13.60
2021,04,23,16,05,13.60
2021,04,23,16,06,13.50
2021,04,23,16,07,13.50
2021,04,23,16,08,13.50
2021,04,23,16,09,13.50
2021,04,23,16,10,13.60
2021,04,23,16,11,13.60
2021,04,23,16,12,13.60
2021,04,23,16,13,13.60
2021,04,23,16,14,13.60
2021,04,23,16,15,13.60
2021,04,23,16,16,13.50
2021,04,23,16,17,13.50
2021,04,23,16,18,13.50
2021,04,23,16,19,13.50
2021,04,23,16,20,13.50
2021,04,23,16,21,13.50
2021,04,23,16,22,13.40
2021,04,23,16,23,13.40
2021,04,23,16,24,13.40
2021,04,23,16,25,13.30
2021,04,23,16,26,13.30
2021,04,23,16,27,13.30
2021,04,23,16,28,13.20
2021,04,23,16,29,13.20
2021,04,23,16,30,13.10
2021,04,23,16,31,13.10
2021,04,23,16,32,13.00
2021,04,23,16,33,13.00
2021,04,23,16,34,13.00
2021,04,23,16,35,13.00
2021,04,23,16,36,13.00
2021,04,23,16,37,13.00
2021,04,23,16,38,12.90
2021,04,23,16,39,12.90
2021,04,23,16,40,12.90
2021,04,23,16,41,12.90
2021,04,23,16,42,12.90
2021,04,23,16,43,13.00
2021,04,23,16,44,13.00
2021,04,23,16,45,13.00
2021,04,23,16,46,13.00
2021,04,23,16,47,13.00
2021,04,23,16,48,13.10
2021,04,23,16,49,13.10
2021,04,23,16,50,13.10
2021,04,23,16,51,13.10
2021,04,23,16,52,13.10
2021,04,23,16,53,13.10
2021,04,23,16,54,13.10
2021,04,23,16,55,13.10
2021,04,23,16,56,13.00
2021,04,23,16,57,13.00
2021,04,23,16,58,13.00
2021,04,23,16,59,12.90
2021,04,23,17,00,12.90
2021,04,23,17,01,12.80
2021,04,23,17,02,12.80
2021,04,23,17,03,12.70
2021,04,23,17,04,12.70
2021,04,23,17,05,12.60
2021,04,23,17,06,12.60
2021,04,23,17,07,12.60
2021,04,23,17,08,12.60
2021,04,23,17,09,12.60
2021,04,23,17,10,12.60
2021,04,23,17,11,12.70
2021,04,23,17,12,12.70
2021,04,23,17,13,12.70
2021,04,23,17,14,12.70
2021,04,23,17,15,12.70
2021,04,23,17,16,12.80
2021,04,23,17,17,12.80
2021,04,23,17,18,12.80
2021,04,23,17,19,12.70
2021,04,23,17,20,12.70
2021,04,23,17,21,12.70
2021,04,23,17,22,12.60
2021,04,23,17,23,12.60
2021,04,23,17,24,12.60
2021,04,23,17,25,12.60
2021,04,23,17,26,12.60
2021,04,23,17,27,12.60
2021,04,23,17,28,12.60
2021,04,23,17,29,12.60
2021,04,23,17,30,12.50
2021,04,23,17,31,12.50
2021,04,23,17,32,12.50
2021,04,23,17,33,12.50
2021,04,23,17,34,12.50
2021,04,23,17,35,12.50
2021,04,23,17,36,12.50